TimeMDT,TemperatureF,Dew PointF,Humidity,Sea Level PressureIn,VisibilityMPH,Wind Direction,Wind SpeedMPH,Gust SpeedMPH,PrecipitationIn,Events,Conditions,WindDirDegrees,DateUTC
12:52 AM,51.1,5.0,15,29.65,10.0,North,8.1,-,N/A,,Mostly Cloudy,350,2013-03-22 06:52:00
1:52 AM,48.9,6.1,18,29.64,10.0,North,9.2,-,N/A,,Scattered Clouds,10,2013-03-22 07:52:00
2:52 AM,45.0,6.1,20,29.66,10.0,SSE,3.5,-,N/A,,Mostly Cloudy,150,2013-03-22 08:52:00
3:52 AM,45.0,8.1,22,29.65,10.0,Calm,Calm,-,N/A,,Scattered Clouds,0,2013-03-22 09:52:00
4:52 AM,39.0,7.0,27,29.67,10.0,Calm,Calm,-,N/A,,Scattered Clouds,0,2013-03-22 10:52:00
5:52 AM,37.9,8.1,29,29.69,10.0,Calm,Calm,-,N/A,,Scattered Clouds,0,2013-03-22 11:52:00
6:52 AM,43.0,7.0,23,29.70,10.0,North,5.8,-,N/A,,Scattered Clouds,350,2013-03-22 12:52:00
7:52 AM,43.0,8.1,24,29.73,10.0,North,4.6,-,N/A,,Partly Cloudy,10,2013-03-22 13:52:00
8:52 AM,46.9,8.1,21,29.73,10.0,Calm,Calm,-,N/A,,Partly Cloudy,0,2013-03-22 14:52:00
9:52 AM,51.1,6.1,16,29.73,10.0,Variable,3.5,-,N/A,,Clear,0,2013-03-22 15:52:00
10:52 AM,54.0,5.0,14,29.71,10.0,Calm,Calm,-,N/A,,Partly Cloudy,0,2013-03-22 16:52:00
11:52 AM,55.9,5.0,13,29.69,10.0,Calm,Calm,-,N/A,,Partly Cloudy,0,2013-03-22 17:52:00
12:52 PM,59.0,7.0,13,29.65,10.0,South,6.9,-,N/A,,Scattered Clouds,190,2013-03-22 18:52:00
1:52 PM,60.1,7.0,12,29.60,10.0,SSW,5.8,-,N/A,,Mostly Cloudy,210,2013-03-22 19:52:00
2:52 PM,61.0,10.0,13,29.59,10.0,South,12.7,-,N/A,,Mostly Cloudy,190,2013-03-22 20:52:00
3:52 PM,61.0,15.1,17,29.56,10.0,SSW,5.8,-,N/A,,Mostly Cloudy,210,2013-03-22 21:52:00
4:52 PM,64.9,12.9,13,29.54,10.0,West,25.3,34.5,N/A,,Mostly Cloudy,270,2013-03-22 22:52:00
5:52 PM,64.9,8.1,11,29.53,10.0,WSW,20.7,35.7,N/A,,Mostly Cloudy,250,2013-03-22 23:52:00
6:52 PM,63.0,10.9,13,29.55,10.0,WSW,23.0,26.5,N/A,,Mostly Cloudy,250,2013-03-23 00:52:00
7:52 PM,57.9,21.0,24,29.60,10.0,WSW,24.2,32.2,N/A,,Mostly Cloudy,240,2013-03-23 01:52:00
8:52 PM,55.0,25.0,31,29.62,10.0,WSW,15.0,-,N/A,,Mostly Cloudy,250,2013-03-23 02:52:00
9:52 PM,54.0,26.1,34,29.62,10.0,WSW,21.9,33.4,N/A,,Scattered Clouds,240,2013-03-23 03:52:00
10:52 PM,52.0,25.0,35,29.63,10.0,SSW,10.4,-,N/A,,Scattered Clouds,210,2013-03-23 04:52:00
11:52 PM,48.2,24.8,40,29.77,10.0,SSW,10.4,19.6,N/A,,Partly Cloudy,210,2013-03-23 05:52:00